Tracking 18784 objects as of 18-August-2017
HD Live streaming from Space Station
objects crossing your sky now

MINOTAUR R/B

Track MINOTAUR R/B now!
10-day predictions


NORAD ID: 26066
Int'l Code: 2000-004F
Perigee: 749.4 km
Apogee: 797.8 km
Inclination: 100.2 °
Period: 100.2 minutes
Semi major axis: 7144 km
RCS: 1.5369 m2 (large)
Launch date: January 27, 2000
Source: United States (US)
Launch site: AIR FORCE WESTERN TEST RANGE (AFWTR)

Note: This is a ROCKET BODY
Your satellite tracking list
Your tracking list is empty





NASA's NSSDC Master Catalog

Two Line Element Set (TLE):
1 26066U 00004F   17229.94648861 -.00000028 +00000-0 +10391-4 0  9990
2 26066 100.2285 257.9591 0033873 110.5329 312.4157 14.37597013920737
Source of the keplerian elements: AFSPC